Regional Weather Roundup
Issued by NWS Northern Indiana

Home | Current Version | Previous Version | Text Only | Print | Product List | Glossary Off
Versions: 1 2 3 4 5 6 7 8 9 10 11 12 13 14 15 16 17 18 19 20 21 22 23 24 25 26 27 28 29 30 31 32 33 34 35 36 37 38 39 40 41 42 43 44 45 46 47 48 49 50

000
ASUS43 KIWX 030900
RWRIWX

KIWX WEATHER ROUNDUP
NATIONAL WEATHER SERVICE NORTHERN INDIANA
400 AM EST TUE MAR 03 2015

NOTE: "FAIR" INDICATES FEW OR NO CLOUDS BELOW 12,000 FEET WITH NO
SIGNIFICANT WEATHER AND/OR OBSTRUCTIONS TO VISIBILITY.

* THESE STATIONS ARE NOT UNDER NWS QUALITY CONTROL. THEY ALSO MAY NOT
  REPORT WEATHER SUCH AS PRECIPITATION OR FOG.

INZ001>027-031000-
NORTHERN INDIANA

CITY           SKY/WX    TMP DP  RH WIND       PRES   REMARKS
SOUTH BEND     CLOUDY    26  15  63 SE9       30.17F WCI  17
GOSHEN         CLOUDY    24  15  68 SE10      30.16F WCI  14
MONTICELLO*    MIX PCPN  25  17  71 SE5       30.14F WCI  20
ANGOLA*        MOCLDY    21  16  79 SE6       30.18F WCI  14
FORT WAYNE     CLOUDY    23  15  71 E8        30.21F WCI  14
PERU/GRISSOM   CLOUDY    25  17  74 SE13      30.14F WCI  13

$$
INZ028>050-031000-
CENTRAL INDIANA

CITY           SKY/WX    TMP DP  RH WIND       PRES   REMARKS
LAFAYETTE      MIX PCPN  26  18  71 SE6       30.14F WCI  19
KOKOMO*        CLOUDY    25  16  68 SE10      30.16F WCI  15
MUNCIE*        CLOUDY    25  15  66 SE9       30.18F WCI  15
INDIANAPOLIS   FRZ RAIN  27  17  66 E12       30.14F WCI  17

$$
MIZ043>046-050>051-056>058-064>065-071>073-077>080-031000-
SOUTHWEST LOWER MICHIGAN

CITY           SKY/WX    TMP DP  RH WIND       PRES   REMARKS
BATTLE CREEK   CLOUDY    25  14  63 SE6       30.18F WCI  18
BENTON HARBOR  CLOUDY    25  16  68 SE8       30.15F WCI  16
COLDWATER*     CLOUDY    23  15  70 SE6       30.18F WCI  16
HILLSDALE*     CLOUDY    22  14  71 SE5       30.18F WCI  16
HOLLAND        CLOUDY    26  15  63 SE7       30.17F WCI  18
GRAND RAPIDS   CLOUDY    24  15  68 SE6       30.18F WCI  17
KALAMAZOO        N/A     25  15  66 SE7       30.17F WCI  17
STURGIS*       CLOUDY    25  16  68 SE7       30.16F WCI  17
THREE RIVERS*  CLOUDY    25  15  67 SE5       30.17F WCI  19

$$
OHZ001>008-015>018-024>025-031000-
NORTHWEST OHIO

CITY           SKY/WX    TMP DP  RH WIND       PRES   REMARKS
DEFIANCE       CLOUDY    23  15  71 E6        30.23F WCI  16
FINDLAY        CLOUDY    22  13  68 E5        30.25F WCI  16
TOLEDO EXPRESS CLOUDY    21  14  74 CALM      30.26F
TOLEDO METCALF CLOUDY    22  15  75 SE3       30.29F
LIMA           CLOUDY    23  14  68 E7        30.22F WCI  15

$$
AND FOR LAKE MICHIGAN COASTAL AND OPEN LAKE BUOY OBSERVATIONS

STATION/POSITION TEMP    WIND        PRES    VSBY  WAVE
                 AIR SEA DIR/SP/G                  HT/PER
                 (F)     (DEG/KT/KT) (MB)    (MI)  (FT/S)
CALUMET HARBOR    27                   N/A
MICHIGAN CITY     26     110/  9/ 12   N/A
SAINT JOSEPH      26      CALM  /  6 1022.7F

$$
&&



USA.gov is the U.S. government's official web portal to all federal, state and local government web resources and services.